User: anonymous   Login
Location: Unspecified
(0.0000°N, 0.0000°E)
Time: 08:36:26
(UTC+00:00)
Language:

STARS - Orbit

View from above orbital plane
View from above orbital plane
View from above satellite
View from above satellite

Ground track
Ground track

The orbit data is extracted from the following two-line orbital elements,

1 33498U 09002G   17263.96418786 +.00000251 +00000-0 +41864-4 0  9991
2 33498 098.3289 081.2074 0011984 048.4496 072.1759 14.78639830465621
Epoch (UTC): 20 September 2017 23:08:25
Eccentricity: 0.0011984
inclination: 98.3289°
perigee height: 625 km
apogee height: 642 km
right ascension of ascending node: 81.2074°
argument of perigee: 48.4496°
revolutions per day: 14.78639830
mean anomaly at epoch: 72.1759°
orbit number at epoch: 46562

The dashed part of the orbit path shows where the satellite is in the earth's shadow,  

DLR